{"data":{"norad_id":66328,"epoch":"2026-09-20T11:47:15.509472Z","epoch_age_seconds":97449,"freshness":"FRESH","line1":"1 66328U 25253K   26263.49115173  .00007212  00000+0  27132-3 0  9991","line2":"2 66328  42.9982 192.6465 0000804 266.4350  93.6410 15.27582380 50034","mean_motion":15.2758238,"eccentricity":8.04e-5,"inclination_deg":42.9982,"raan_deg":192.6465,"arg_perigee_deg":266.435,"mean_anomaly_deg":93.641,"bstar":0.00027132,"rev_number":5003,"period_min":94.266601844412,"perigee_km":482.49033068356,"apogee_km":483.59360826185,"semimajor_km":6861.1789694727,"source":"CELESTRAK","updated_at":"2026-09-21T09:00:35.874591Z"}}